• Join FlightAware (Why Join?)
  • Login
  • US Flag 
04:03PM EDT


 

Airport Tracker/Info


-or-


 

Live Flight TrackerFlight Track Log ✈ EJA829P ✈ 08-Nov-2013 ✈ KCMH - KLEX

Flight Track Log - Related Links

Times and Time Zones

All times are in EST time to prevent confusion due to time zone crossing. See the EJA829P flight status page for this flight to view local times or setup timezone preferences in your user account.

Time Position Orientation Groundspeed Altitude Reporting Facility
EST Latitude Longitude Course Direction KTS MPH feet Rate Location/Type
07:54AM 40.0025 -82.9072 275° West 144 166 1,400  Level Indianapolis Center
07:54AM 40.0050 -82.9467 275° West 178 205 3,800 4,200 Climbing Indianapolis Center
07:54AM 40.0053 -82.9650 271° West 182 209 4,800 3,540 Climbing Indianapolis Center
07:55AM 39.9664 -82.9872 204° Southwest 262 302 7,500 3,900 Climbing Indianapolis Center
07:56AM 39.8858 -82.9317 152° Southeast 328 377 12,300 3,600 Climbing Indianapolis Center
07:57AM 39.7931 -82.8650 151° Southeast 375 432 15,000 2,220 Climbing Indianapolis Center
07:58AM 39.6756 -82.8467 173° South 371 427 17,000 960 Climbing Indianapolis Center
07:59AM 39.5892 -82.9131 211° Southwest 361 415 17,000  Level Indianapolis Center
08:00AM 39.5011 -82.9797 210° Southwest 364 419 17,000  Level Indianapolis Center
08:01AM 39.4114 -83.0481 210° Southwest 370 426 17,000  Level Indianapolis Center
08:02AM 39.3211 -83.1150 210° Southwest 372 428 17,000  Level Indianapolis Center
08:04AM 39.2325 -83.1842 211° Southwest 372 428 17,000  Level Indianapolis Center
08:05AM 39.1439 -83.2508 210° Southwest 371 427 17,100  Climbing Indianapolis Center
08:06AM 39.0556 -83.3172 210° Southwest 368 423 17,100 -120 Level Indianapolis Center
08:07AM 38.9669 -83.3833 210° Southwest 368 423 16,900 -240 Descending Indianapolis Center
08:08AM 38.8614 -83.4625 210° Southwest 366 421 16,700 -240 Descending Indianapolis Center
08:09AM 38.7744 -83.5264 210° Southwest 362 417 16,500 -600 Descending Indianapolis Center
08:10AM 38.6889 -83.5897 210° Southwest 357 411 15,500 -1,020 Descending Indianapolis Center
08:11AM 38.5994 -83.6567 210° Southwest 361 415 14,500 -960 Descending Indianapolis Center
08:12AM 38.5150 -83.7197 210° Southwest 355 409 13,600 -900 Descending Indianapolis Center
08:13AM 38.4292 -83.7822 210° Southwest 355 409 12,700 -1,020 Descending Indianapolis Center
08:14AM 38.3344 -83.8511 210° Southwest 340 391 11,600 -840 Descending Indianapolis Center
08:15AM 38.2811 -83.9322 230° Southwest 302 348 11,000 -840 Descending Indianapolis Center
08:16AM 38.2553 -84.0275 251° West 284 327 9,900 -1,320 Descending Indianapolis Center
08:17AM 38.2325 -84.1119 251° West 259 298 8,300 -1,560 Descending Indianapolis Center
08:18AM 38.2086 -84.1983 251° West 258 297 6,700 -1,560 Descending Indianapolis Center
08:19AM 38.1853 -84.2831 251° West 257 296 5,100 -1,560 Descending Indianapolis Center
08:20AM 38.1631 -84.3669 251° West 254 292 3,600 -1,080 Descending Indianapolis Center
08:21AM 38.1375 -84.4594 251° West 247 284 3,000 -360 Descending Indianapolis Center
08:22AM 38.1153 -84.5153 243° Southwest 221 254 2,900 -420 Descending Indianapolis Center
08:23AM 38.0894 -84.5483 225° Southwest 162 186 2,200 -660 Descending Indianapolis Center
08:24AM 38.0656 -84.5742 220° Southwest 132 152 1,600 -540 Descending Indianapolis Center
08:25AM 38.0397 -84.6014 220° Southwest 123 142 1,100 -540 Descending Indianapolis Center
08:27AM 38.0333 -84.6000 247° West  Level FlightAware Approximate